Location: Castelbiague
(43.0361°N, 0.9246°E)
Time: 09:33:34
(UTC+00:00)

ERS-1 Rocket - Pass Details

Date: 17 June 2021
Orbit: 752 x 758 km, 98.4° (Epoch: 01 August)

Event Time Altitude Azimuth Distance (km) Brightness Sun altitude
Exits shadow 20:44:31 13° 126° (SE) 2,097 4.6 -10.1°
Maximum altitude 20:48:24 32° 67° (ENE) 1,279 4.0 -10.6°
Drops below altitude 10° 20:52:52 10° 5° (N) 2,298 6.1 -11.2°
Sets 20:55:21 0° 356° (N) 3,228 7.1 -11.5°
